This is the latest recevied weather packets stored in our database for station/object S50ME-11. If no packets are shown the sender has not sent any weather packets the latest 1 day(s).
| Time | Temp. | Humidity | Pressure | Rain* | Wind** | Luminosity | Snow |
|---|---|---|---|---|---|---|---|
| 1778064360 | 25° C | 42% | 1012.3 hPa | - | - | - | - |
| 1778063456 | 25.56° C | 42% | 1012.8 hPa | - | - | - | - |
| 1778062556 | 25° C | 42% | 1012.1 hPa | - | - | - | - |
| 1778061659 | 25.56° C | 42% | 1011.9 hPa | - | - | - | - |
| 1778061656 | 25.56° C | 42% | 1011.9 hPa | - | - | - | - |
| 1778060755 | 26.11° C | 42% | 1012 hPa | - | - | - | - |
| 1778059858 | 26.11° C | 42% | 1011.8 hPa | - | - | - | - |
| 1778059855 | 26.11° C | 42% | 1011.8 hPa | - | - | - | - |
| 1778058957 | 26.11° C | 42% | 1011.2 hPa | - | - | - | - |
| 1778058954 | 26.11° C | 42% | 1011.2 hPa | - | - | - | - |
| 1778057156 | 27.22° C | 41% | 1012.3 hPa | - | - | - | - |
| 1778057153 | 27.22° C | 41% | 1012.3 hPa | - | - | - | - |
| 1778056256 | 28.89° C | 40% | 1012.4 hPa | - | - | - | - |
| 1778056253 | 28.89° C | 40% | 1012.4 hPa | - | - | - | - |
| 1778055355 | 30° C | 40% | 1012.6 hPa | - | - | - | - |
| 1778055352 | 30° C | 40% | 1012.6 hPa | - | - | - | - |
| 1778054455 | 28.89° C | 40% | 1011.4 hPa | - | - | - | - |
| 1778054452 | 28.89° C | 40% | 1011.4 hPa | - | - | - | - |
| 1778053555 | 27.78° C | 41% | 1011.3 hPa | - | - | - | - |
| 1778052651 | 27.22° C | 41% | 1012.2 hPa | - | - | - | - |
| 1778051754 | 26.67° C | 41% | 1012.7 hPa | - | - | - | - |
| 1778051751 | 26.67° C | 41% | 1012.7 hPa | - | - | - | - |
| 1778050854 | 26.11° C | 42% | 1012.7 hPa | - | - | - | - |
| 1778049954 | 24.44° C | 42% | 1012 hPa | - | - | - | - |
| 1778049050 | 22.22° C | 43% | 1012 hPa | - | - | - | - |
* Rain since midnight (hover to see other rain measurements)
** Current wind speed in m/s (hover to see current wind gust speed)